Le Mars, IA

7:10 AM CST on November 17, 2019 (GMT -0600)
Le Mars Municipal

Weather History for KLRJ - July, 2019

Change the Weather History Date:

Monday, July 29, 2019

  Actual Average Record
Temperature  
Mean Temperature 71 °F -  
Max Temperature 80 °F 86 °F 98 °F (1975)
Min Temperature 62 °F 61 °F 43 °F (1971)
Cooling Degree Days 6    
Growing Degree Days 21 (Base 50)    
Moisture  
Dew Point 61 °F    
Average Humidity 67    
Maximum Humidity 100    
Minimum Humidity 45    
Precipitation  
Precipitation 0.00 in - - ()
Sea Level Pressure  
Sea Level Pressure 30.03 in    
Wind  
Wind Speed 7 mph (NW)    
Max Wind Speed 16 mph    
Max Gust Speed 25 mph    
Visibility 10 miles    
Events      
Averages and records for this station are not official NWS values.
T = Trace of Precipitation, MM = Missing Value Source: NWS Daily Summary

Daily Weather History Graph

Daily Weather History Graph

Search for Another Location

Airport or City:

Astronomy

Jul. 29, 2019 Rise Set
Actual Time 6:12 AM CDT 8:48 PM CDT
Civil Twilight 5:40 AM CDT 9:21 PM CDT
Nautical Twilight 4:59 AM CDT 10:01 PM CDT
Astronomical Twilight 4:13 AM CDT 10:47 PM CDT
Moon 3:24 AM CDT (7/29) 6:55 PM CDT (7/29)
Length of Visible Light 15h 40m
Length of Day
14h 35m
Waning Crescent, 8% of the Moon is Illuminated
Jul 29
Waning Crescent
Jul 31
New
Aug 7
First Quarter
Aug 15
Full
Aug 23
Last Quarter

Hourly Weather History & Observations

Time (CDT) Temp. Heat Index Dew Point Humidity Pressure Visibility Wind Dir Wind Speed Gust Speed Precip Events Conditions
7:15 AM 62.6 °F - 62.6 °F 100% 30.00 in 10.0 mi Calm Calm - N/A   Clear
7:35 AM 64.4 °F - 64.4 °F 100% 30.01 in 10.0 mi Calm Calm - N/A   Clear
7:55 AM 66.2 °F - 66.2 °F 100% 30.01 in - WNW 5.8 mph - N/A   Unknown
8:15 AM 66.2 °F - 66.2 °F 100% 30.02 in 10.0 mi NW 6.9 mph - N/A   Clear
8:35 AM 68.0 °F - 66.2 °F 94% 30.02 in 10.0 mi NW 8.1 mph - N/A   Clear
8:55 AM 69.8 °F - 66.2 °F 88% 30.02 in 10.0 mi NW 8.1 mph - N/A   Clear
9:15 AM 69.8 °F - 66.2 °F 88% 30.03 in 10.0 mi NW 6.9 mph - N/A   Clear
9:35 AM 71.6 °F - 64.4 °F 78% 30.03 in 10.0 mi Variable 6.9 mph - N/A   Clear
9:55 AM 73.4 °F - 62.6 °F 69% 30.03 in 10.0 mi North 6.9 mph - N/A   Clear
10:15 AM 73.4 °F - 62.6 °F 69% 30.03 in 10.0 mi North 8.1 mph - N/A   Clear
10:35 AM 75.2 °F - 60.8 °F 61% 30.03 in 10.0 mi NNW 9.2 mph - N/A   Clear
10:55 AM 75.2 °F - 60.8 °F 61% 30.03 in 10.0 mi NNW 8.1 mph - N/A   Clear
11:15 AM 77.0 °F - 60.8 °F 57% 30.03 in 10.0 mi NW 8.1 mph - N/A   Clear
11:35 AM 77.0 °F - 60.8 °F 57% 30.04 in 10.0 mi NW 6.9 mph - N/A   Clear
11:55 AM 77.0 °F - 60.8 °F 57% 30.04 in 10.0 mi NW 11.5 mph - N/A   Clear
12:15 PM 78.8 °F - 60.8 °F 54% 30.04 in 10.0 mi NNW 11.5 mph 18.4 mph N/A   Clear
12:35 PM 78.8 °F - 60.8 °F 54% 30.03 in 10.0 mi NW 12.7 mph - N/A   Clear
12:55 PM 78.8 °F - 60.8 °F 54% 30.03 in 10.0 mi NW 12.7 mph - N/A   Clear
1:15 PM 78.8 °F - 59.0 °F 51% 30.03 in 10.0 mi WNW 12.7 mph 20.7 mph N/A   Clear
1:35 PM 78.8 °F - 57.2 °F 47% 30.03 in 10.0 mi NW 15.0 mph 20.7 mph N/A   Clear
1:55 PM 78.8 °F - 57.2 °F 47% 30.03 in 10.0 mi NW 11.5 mph 20.7 mph N/A   Clear
2:15 PM 80.6 °F 81.1 °F 59.0 °F 48% 30.03 in 10.0 mi WNW 16.1 mph 21.9 mph N/A   Clear
2:35 PM 80.6 °F 80.8 °F 57.2 °F 45% 30.03 in 10.0 mi WNW 15.0 mph 21.9 mph N/A   Clear
2:55 PM 80.6 °F 80.8 °F 57.2 °F 45% 30.03 in 10.0 mi NW 11.5 mph 25.3 mph N/A   Clear
3:15 PM 80.6 °F 80.8 °F 57.2 °F 45% 30.02 in 10.0 mi NW 16.1 mph - N/A   Clear
3:35 PM 80.6 °F 80.8 °F 57.2 °F 45% 30.03 in 10.0 mi NW 16.1 mph 23.0 mph N/A   Clear
3:55 PM 80.6 °F 80.8 °F 57.2 °F 45% 30.03 in 10.0 mi NW 11.5 mph 18.4 mph N/A   Clear
4:15 PM 80.6 °F 80.8 °F 57.2 °F 45% 30.02 in 10.0 mi NW 15.0 mph - N/A   Clear
4:35 PM 80.6 °F 80.8 °F 57.2 °F 45% 30.02 in 10.0 mi NNW 13.8 mph 19.6 mph N/A   Clear
4:55 PM 80.6 °F 80.8 °F 57.2 °F 45% 30.02 in 10.0 mi NNW 12.7 mph - N/A   Clear
5:15 PM 78.8 °F - 59.0 °F 51% 30.02 in 10.0 mi NW 12.7 mph - N/A   Clear
5:35 PM 78.8 °F - 59.0 °F 51% 30.02 in 10.0 mi NW 9.2 mph 16.1 mph N/A   Partly Cloudy
5:55 PM 78.8 °F - 59.0 °F 51% 30.02 in 10.0 mi NW 12.7 mph - N/A   Clear
6:15 PM 78.8 °F - 59.0 °F 51% 30.01 in 10.0 mi NNW 12.7 mph - N/A   Clear
6:35 PM 78.8 °F - 59.0 °F 51% 30.01 in 10.0 mi NNW 10.4 mph - N/A   Clear
6:55 PM 78.8 °F - 60.8 °F 54% 30.01 in 10.0 mi North 9.2 mph - N/A   Clear
7:15 PM 77.0 °F - 60.8 °F 57% 30.01 in 10.0 mi North 8.1 mph - N/A   Clear
7:35 PM 77.0 °F - 60.8 °F 57% 30.01 in 10.0 mi North 6.9 mph - N/A   Clear
7:55 PM 75.2 °F - 60.8 °F 61% 30.01 in 10.0 mi North 8.1 mph - N/A   Clear
8:15 PM 73.4 °F - 60.8 °F 65% 30.02 in 10.0 mi NNW 5.8 mph - N/A   Clear
8:35 PM 71.6 °F - 62.6 °F 73% 30.03 in 10.0 mi NNW 5.8 mph - N/A   Clear
8:55 PM 69.8 °F - 64.4 °F 83% 30.04 in 10.0 mi Calm Calm - N/A   Clear
9:15 PM 68.0 °F - 62.6 °F 83% 30.05 in 10.0 mi North 3.5 mph - N/A   Clear
9:35 PM 68.0 °F - 62.6 °F 83% 30.06 in 10.0 mi Calm Calm - N/A   Clear
9:55 PM 66.2 °F - 62.6 °F 88% 30.07 in 10.0 mi Calm Calm - N/A   Clear
10:15 PM 64.4 °F - 62.6 °F 94% 30.07 in 10.0 mi Calm Calm - N/A   Clear
10:35 PM 64.4 °F - 62.6 °F 94% 30.07 in 10.0 mi Calm Calm - N/A   Clear
10:55 PM 62.6 °F - 62.6 °F 100% 30.08 in 10.0 mi Calm Calm - N/A   Clear
11:15 PM 62.6 °F - 62.6 °F 100% 30.09 in 10.0 mi Calm Calm - N/A   Clear
11:35 PM 62.6 °F - 60.8 °F 94% 30.08 in 10.0 mi Calm Calm - N/A   Clear
11:55 PM 62.6 °F - 62.6 °F 100% 30.09 in 10.0 mi Calm Calm - N/A   Clear